Regional Weather Roundup
Issued by NWS Jackson, KY

Home | Current Version | Previous Version | Text Only | Print | Product List | Glossary On
Versions: 1 2 3 4 5 6 7 8 9 10 11 12 13 14 15 16 17 18 19 20 21 22 23 24 25 26 27 28 29 30 31 32 33 34 35 36 37 38 39 40 41 42 43 44 45 46 47 48 49 50
000
ASUS43 KJKL 300619
RWRJKL

EAST KENTUCKY HOURLY WEATHER ROUNDUP
NATIONAL WEATHER SERVICE JACKSON KY
200 AM EDT TUE SEP 30 2014

NOTE: "FAIR" INDICATES FEW OR NO CLOUDS BELOW 12,000 FEET WITH
NO SIGNIFICANT WEATHER AND/OR OBSTRUCTIONS TO VISIBILITY.

* THESE REPORTS ARE NOT UNDER NWS QUALITY CONTROL AND MAY NOT
  REPORT WEATHER SUCH AS PRECIPITATION AND FOG.

KYZ079-080-083-085-087-088-110-112-115-119-120-300700
...EASTERN KENTUCKY...

CITY           SKY/WX    TMP DP  RH WIND       PRES   REMARKS
JACKSON        CLEAR     63  60  90 CALM      29.96S
6HR MIN TEMP:  63; 6HR MAX TEMP:  72;

LONDON         PTCLDY    60  57  89 CALM      29.97S FOG
6HR MIN TEMP:  59; 6HR MAX TEMP:  73;

SOMERSET*      FOG       59  59 100 CALM      29.97F VSB 1/2
MONTICELLO*    FOG       55  55 100 CALM      29.98S VSB<1/4
6HR MIN TEMP:  55; 6HR MAX TEMP:  68;

WILLIAMSBURG*  CLEAR     59  59 100 CALM      29.97F
MIDDLESBORO*   PTCLDY    58  58  99 CALM      29.99S
6HR MIN TEMP:  58; 6HR MAX TEMP:  68;

HARLAN APT*    CLOUDY    59  59 100 CALM      30.00S VSB 1/4
HAZARD APT*    CLEAR     63  63 100 CALM      29.96
BLACK MTN*       N/A     57  55  94 N3          N/A
PIKEVILLE APT* CLEAR     63  61  94 S5        29.96S
MOREHEAD APT*  MOCLDY    57  55  94 S3        29.96F FOG
ASHLAND*       CLOUDY    57  52  82 CALM      29.91S VSB 1
$$

KYZ035-036-041-042-044-050-067-078-099-300700
...CENTRAL KENTUCKY...

CITY           SKY/WX    TMP DP  RH WIND       PRES   REMARKS
MT STERLING*   CLEAR     54  54 100 W3        29.97S
FLEMING/MASON* CLEAR     59  52  77 SW5       29.95S
DANVILLE*      CLEAR     55  52  88 CALM      29.97F
RICHMOND*      CLEAR     57  52  82 CALM      29.96S
LEXINGTON      CLEAR     60  53  77 SW3       29.95F HAZE
6HR MIN TEMP:  59; 6HR MAX TEMP:  73;

FRANKFORT      CLEAR     56  52  86 CALM      29.94S
6HR MIN TEMP:  55; 6HR MAX TEMP:  68;

$$

KYZ091>093-OHZ055-061-077-WVZ005-015-034-035-042-300700
...SOUTHERN OHIO/WEST VIRGINIA...

CITY           SKY/WX    TMP DP  RH WIND       PRES   REMARKS
COVINGTON      CLEAR     57  53  86 CALM      29.94S
COLUMBUS       CLEAR     55  50  83 CALM      29.91S
DAYTON         CLEAR     62  49  62 CALM      29.94S
WILMINGTON     CLEAR     52  48  86 CALM      29.93F
HUNTINGTON     CLEAR     60  60 100 SW3       29.92S
CHARLESTON     MOCLDY    61  60  97 CALM      29.92F FOG
PINEVILLE*     FOG       61  61 100 MISG      30.03S VSB 1/2
BECKLEY        CLEAR     56  54  93 CALM      30.00F FOG
BLUEFIELD      CLEAR     60  55  83 SW6       30.02F
$$

VAZ002-007-008-TNZ017-027-036-066-071-300700
...SOUTHWEST VIRGINIA/EAST TENNESSEE...

CITY           SKY/WX    TMP DP  RH WIND       PRES   REMARKS
WISE*          CLEAR     59  59 100 CALM      30.03S
JONESVILLE*    FOG       57  57 100 CALM      30.01S VSB 3/4
ABINGDON*      PTCLDY    58  58  99 CALM      30.00S FOG
BRISTOL        MOCLDY    58  56  93 CALM      29.99S FOG
KNOXVILLE      CLEAR     63  60  90 CALM      29.96R
OAK RIDGE      PTCLDY    62  61  96 CALM      29.98S
CROSSVILLE     CLEAR     60  56  86 CALM      30.00S
NASHVILLE      CLEAR     66  61  84 CALM      29.95F
$$

...KEY TO REMARKS...
VSB - VISIBILITY IN MILES
WCI - WIND CHILL INDEX
HX  - HEAT INDEX

$$



USA.gov is the U.S. government's official web portal to all federal, state and local government web resources and services.